CZ-6A DEB

Satellite information

Favourite Embed

Satellite Type and Status

DEBRISIN ORBIT

Key statistics

Satellite CZ-6A DEB at a glance.

Uptime

1023

Days in orbit

Revolutions

≈ 14.0

Per day

Orbit

SSO

Sun Synchronous Orbit

Inclination

98.9

Latest

Satellite identification and parameters

Extended collection of information and parameters for CZ-6A DEB.

Object identification

Identified? True

Debris? True

Object name: CZ-6A DEB

International designator: 2022-151KA

Object number (NORAD): 54522

Object ID (CCSDS): 54522

Country: PEOPLES REPUBLIC OF CHINA (PRC)

Current information (Y/N): Y

RCS size: SMALL

Orbital parameters

Period: 102.745 minutes

Inclination: 98.8596 deg

SMA: 7266.651 km

Apoapsis: 969.612 km

Periapsis: 807.42 km

RAAN: 225.9977 deg

Eccentricy: 0.01116004

Argument of periapsis: 157.436 deg

Mean anomaly: 203.1769 deg

Mean motion: 14.0152646 rev/day

Mean motion (dot): 0.00000224 rev/day2

B* drag term: 0.00016691101 1/REarth

Two-line elements (TLE)

Creation date: Aug. 30, 2025, 3:38 a.m.

Reference frame: TEME

Reference center: EARTH

Epoch: Aug. 29, 2025, 10:20 p.m. UTC

TLE line 0: 0 CZ-6A DEB

TLE line 1: 1 54522U 22151KA 25241.93115515 .00000224 00000-0 16691-3 0 9997

TLE line 2: 2 54522 98.8596 225.9977 0111600 157.4360 203.1769 14.01526460142836

Live tracking on map

Real-time ground track for satellite CZ-6A DEB.

In-orbit conjunctions

A list of the most updated potential collisions computed for object CZ-6A DEB.

Target Orbit TCA Probability of collision Miss distance Type
DIAMANT B-P4 R/B LEO 2024-08-10 09:44:22 0.0001499114 244.0 (m) ROCKET BODY
FENGYUN 1C DEB SSO 2024-06-04 22:21:39 0.0001352708 331.0 (m) DEBRIS

Associated space launch

Chinese satellite reported for atmospheric/ocean/environmental/spatial parameter research purposes, details TBD.

CZ-6A DEB was lifted into orbit during the mission ‘Long March 6A | Yunhai 3’, on board a Long March 6A space rocket.

The launch took place on Nov. 11, 2022, 10:52 p.m. from Launch Complex 9A.

For more information about the launch, click the button.

Launch to space Long March 6A | Yunhai 3
Long March 6A | Yunhai 3

Agency: N/A

Status: Launch Successful

Launch date: Nov. 11, 2022, 10:52 p.m. UTC

Rocket: Long March 6A

Launch pad: Launch Complex 9A

Location: Taiyuan Satellite Launch Center, People's Republic of China

...

Latest news about this satellite

There are no fresh news available about this satellite. Check back as we update our databases every day.


Newsletter sign-up

Weekly statistics, charts and insights to help you stay on top of the space industry.